Theta_e
324 333 339 344 343 341 347 345 343 341 341 339 339 342 344 344 345 349 345 342 343 342 341 339 338 338 337 337 337 336 334 333 331 328 324 320 318 317 317 318 319 319 319 318 320 323 326 329 335
337 339 342 340 342 346 344 341 342 342 339 340 340 340 343 345 344 344 339 343 343 342 341 340 339 338 337 337 336 334 332 330 328 326 324 320 318 318 319 320 321 321 321 322 321 323 332 333 334
329 338 338 341 342 345 344 340 341 341 341 340 344 343 344 344 343 344 342 342 340 341 340 337 336 336 334 334 335 334 333 330 327 333 336 332 321 320 322 322 322 322 322 322 323 324 329 331 332
332 336 339 340 344 341 341 342 341 338 339 340 342 344 344 344 343 343 343 344 341 339 339 338 337 334 332 333 333 335 335 335 332 325 323 323 320 320 321 322 323 324 323 323 323 325 328 332 331
333 336 340 344 344 343 342 341 340 344 342 340 342 344 343 342 342 341 341 340 341 340 338 335 335 333 331 331 331 331 332 332 333 334 328 322 319 319 321 322 323 324 324 324 323 323 326 329 328
338 337 343 344 341 344 342 342 345 344 342 342 342 342 341 341 341 341 342 341 340 338 337 336 334 333 330 327 325 324 324 325 327 328 328 327 323 320 319 319 322 323 323 324 324 324 323 323 323
337 340 344 343 340 344 342 343 345 346 345 346 342 342 340 340 339 339 339 338 338 337 336 336 335 333 332 331 330 329 327 324 321 320 321 322 324 327 325 325 321 319 320 322 322 322 323 323 324
337 339 341 342 345 342 342 344 345 346 344 345 345 344 340 339 339 338 337 336 335 333 332 332 332 330 324 320 321 321 321 322 322 323 325 324 330 332 333 331 330 326 325 323 320 319 320 320 321
335 343 342 340 341 343 343 343 342 341 339 337 338 338 338 337 336 336 334 331 329 327 326 322 323 322 322 321 321 321 321 322 322 322 321 320 323 326 330 331 330 329 325 320 319 320 320 319 320
336 338 339 340 339 340 344 343 343 341 339 336 334 336 336 337 336 334 330 328 326 326 326 325 324 323 323 321 321 321 320 319 320 319 319 321 323 324 324 324 324 324 326 327 327 326 323 322 321
336 339 337 337 339 340 341 343 342 340 339 337 333 335 334 333 330 325 325 325 325 324 324 323 322 320 320 321 320 320 320 319 318 318 318 318 318 322 324 326 326 325 323 323 323 326 328 331 327
339 338 339 340 340 341 342 342 340 340 336 334 333 333 331 330 328 324 324 325 324 324 323 323 324 323 322 322 322 321 320 319 319 318 318 318 317 319 321 324 324 323 324 324 325 323 321 324 326
338 340 341 341 342 341 342 341 337 336 335 334 332 330 328 323 322 324 326 326 326 326 324 324 324 322 319 322 321 319 319 319 318 318 317 317 317 318 319 320 322 322 321 321 321 323 323 323 320
331 339 341 341 342 342 341 338 340 336 334 333 331 329 325 322 325 327 327 327 327 326 326 325 324 324 323 321 321 318 318 318 317 316 315 315 317 317 315 316 318 320 320 321 320 320 320 320 319
337 336 336 341 341 341 340 342 340 336 334 334 332 331 329 326 327 328 328 327 327 327 326 323 323 322 321 320 318 317 317 315 315 315 315 315 314 313 313 313 316 317 317 317 318 319 319 318 317
336 334 337 336 336 341 340 346 338 336 335 334 333 331 328 328 328 329 328 326 327 325 324 324 322 321 319 317 317 315 316 314 314 314 314 313 311 311 310 312 313 315 316 318 317 317 316 316 315
336 339 337 334 330 337 340 344 338 336 336 334 332 330 329 328 329 329 328 327 326 324 323 322 321 318 315 316 314 315 314 314 313 313 312 311 310 308 310 310 311 312 314 313 315 317 316 316 315
340 340 336 337 335 331 335 344 339 337 336 334 331 330 329 329 329 328 327 325 323 323 321 320 318 316 313 315 314 314 313 313 313 312 311 310 310 310 309 309 310 311 311 314 314 315 315 316 315
335 338 339 335 332 334 342 343 339 336 336 333 332 330 329 329 328 327 325 323 322 321 321 320 317 315 312 314 314 313 313 313 312 312 312 310 310 311 311 311 311 310 312 311 313 314 315 314 315
336 337 338 334 334 337 341 343 339 336 336 333 332 330 328 327 328 326 324 323 320 321 320 319 316 313 312 313 313 311 313 313 312 311 310 311 312 311 311 312 312 311 311 311 312 312 313 311 314
334 336 337 335 333 338 339 343 337 337 336 333 331 329 327 328 327 325 324 323 322 321 319 317 314 313 312 312 312 312 311 311 310 310 310 313 312 310 311 312 311 310 310 312 312 311 311 313 313
334 335 333 334 335 339 334 339 331 336 336 329 328 327 328 327 326 325 324 323 321 319 317 316 315 313 312 312 312 313 313 312 311 312 311 312 311 311 311 312 311 311 311 312 312 312 313 313 313
333 333 333 333 337 336 337 339 336 334 337 333 328 326 326 326 324 323 323 322 320 318 316 315 315 313 312 312 314 313 313 313 312 311 312 312 312 311 310 311 310 311 311 311 312 312 311 312 313
334 335 332 331 335 342 340 339 333 330 332 334 329 328 327 324 324 323 322 321 318 317 317 315 315 314 313 314 315 313 312 311 312 313 312 311 312 312 310 311 311 312 313 312 311 312 312 313 314
332 332 332 331 334 341 338 336 331 333 334 332 331 327 324 325 324 324 321 320 317 317 316 315 315 314 312 313 314 313 312 311 313 312 312 311 312 311 311 311 311 312 312 313 313 313 314 313 313
329 329 330 334 335 329 333 335 335 331 329 328 327 326 326 325 324 322 320 319 318 317 316 315 314 312 314 313 314 313 314 313 312 311 311 312 312 311 312 311 311 312 312 313 312 312 313 313 313
330 330 329 332 331 334 332 331 329 330 330 327 328 328 327 325 324 321 319 319 317 316 315 314 313 314 313 313 313 313 313 312 312 311 312 312 311 312 312 311 311 311 312 312 313 313 313 314 314
327 329 330 330 335 333 335 332 332 329 326 327 329 328 327 325 322 320 319 318 316 314 314 314 314 314 313 313 314 314 315 314 312 313 312 313 313 311 310 311 312 313 311 313 313 313 313 313 313
331 332 331 332 334 333 334 334 328 326 325 324 324 326 325 324 321 319 318 316 316 314 314 315 314 314 314 314 314 314 315 314 314 313 313 313 312 310 311 311 311 313 312 313 313 313 313 313 314
330 331 333 335 335 331 332 331 325 322 321 322 322 321 323 320 320 318 317 316 314 314 314 314 313 314 314 314 315 314 313 312 313 314 312 313 312 310 312 311 311 312 312 312 313 313 313 312 313
Wind_Speed
6 6 6 11 7 5 18 16 13 16 19 25 31 28 26 22 13 7 11 16 15 14 14 12 10 9 7 5 4 3 3 4 4 4 4 3 2 2 2 3 3 3 3 4 5 5 5 6 6
3 6 9 15 7 5 11 16 16 16 19 27 27 30 32 22 21 17 17 14 16 14 13 13 12 11 9 7 6 6 5 5 4 5 4 3 2 1 1 2 2 2 3 3 3 5 7 8 6
4 1 8 5 3 5 4 16 17 10 11 17 16 22 13 7 21 11 17 14 13 15 14 13 11 10 9 8 7 6 7 6 6 5 5 3 1 1 0 0 1 1 2 3 3 5 7 7 6
6 8 9 3 16 11 11 17 19 19 23 24 25 17 13 18 11 15 14 17 17 13 14 13 10 9 8 8 7 7 7 7 6 3 3 4 3 3 4 4 3 1 1 2 3 3 5 6 6
7 7 4 13 10 19 12 22 3 19 14 21 23 14 10 18 17 19 17 14 17 18 13 13 12 11 10 10 8 6 5 5 5 5 5 4 5 4 5 6 6 5 3 1 1 2 3 5 5
6 11 4 4 16 22 19 23 32 26 22 24 25 15 9 12 17 18 17 21 11 12 15 17 16 15 11 10 9 8 6 5 4 5 5 6 6 8 9 10 9 9 9 8 6 4 4 4 5
10 3 5 11 16 20 16 20 20 19 17 20 15 10 9 14 15 16 16 16 18 15 14 14 15 15 12 12 12 11 9 8 7 6 6 6 5 4 6 10 12 13 12 12 12 11 9 8 7
14 4 2 2 8 12 17 22 17 14 14 10 7 7 7 15 12 14 15 16 17 16 15 13 11 9 10 15 14 14 13 12 10 8 7 3 5 5 7 9 9 9 12 14 16 15 13 13 11
20 5 6 14 12 12 21 20 18 18 24 23 13 19 18 18 13 13 14 15 15 15 15 16 17 18 19 19 19 19 19 19 19 18 14 11 10 9 8 11 12 13 15 17 17 16 15 15 13
7 0 5 17 18 12 24 22 18 13 20 17 22 20 18 14 11 15 16 15 15 14 12 13 13 15 14 15 15 15 10 11 10 13 16 8 9 13 13 12 14 17 19 18 17 18 17 15 10
13 7 11 13 16 19 18 21 17 22 11 11 16 20 17 18 19 17 17 14 15 14 12 13 13 8 11 9 9 8 10 12 12 12 17 15 15 8 14 15 16 13 18 15 14 16 13 12 18
12 18 11 11 13 18 18 18 19 17 14 19 20 18 17 15 14 16 17 15 14 12 10 9 9 10 11 9 9 9 10 14 14 13 16 17 19 10 15 14 12 6 13 13 14 15 13 20 21
15 14 10 9 9 18 17 17 18 22 20 19 19 16 16 18 18 18 17 13 10 10 9 9 7 14 15 12 12 11 14 14 15 14 16 18 14 15 15 17 14 12 15 17 11 9 13 8 10
22 11 7 6 11 14 19 23 11 15 16 17 17 16 15 16 14 11 12 9 7 7 7 9 12 12 15 11 16 15 15 18 14 14 17 16 14 16 18 17 14 15 17 17 19 13 9 10 14
20 20 30 4 7 10 15 10 13 20 19 19 18 17 15 14 13 13 10 9 8 9 7 10 9 15 16 14 17 15 14 16 11 12 17 20 20 22 22 19 16 14 19 21 24 23 21 19 13
14 7 7 15 17 7 19 9 17 21 19 17 18 16 16 13 17 10 8 7 3 5 10 8 8 11 19 17 16 16 14 14 13 13 12 17 22 24 21 18 15 16 20 16 16 17 17 19 22
5 8 12 7 12 15 31 18 18 16 18 15 18 18 15 19 14 8 7 8 8 6 6 6 11 16 21 14 14 14 12 13 11 14 16 23 26 23 18 16 15 17 19 20 18 18 17 18 21
13 6 19 7 7 29 38 12 21 23 16 16 19 21 17 17 14 8 7 11 7 5 9 10 12 16 14 15 10 10 10 11 14 15 24 23 19 20 14 14 14 15 20 16 14 16 17 16 17
12 14 20 13 16 7 2 17 13 17 15 18 19 20 19 17 14 12 9 5 7 6 7 7 13 17 14 12 15 14 12 12 12 14 16 15 16 18 19 19 16 14 16 17 18 17 16 16 15
20 11 7 6 4 6 14 15 15 15 13 16 21 20 18 19 13 9 10 4 7 5 5 8 15 19 14 14 15 18 14 12 13 15 14 16 17 16 16 17 16 15 17 16 17 18 15 15 14
11 11 5 7 7 11 6 7 6 2 7 9 14 16 15 15 13 15 9 5 6 5 6 8 15 15 17 16 14 14 13 12 12 14 14 14 17 18 16 20 17 14 13 12 14 13 14 16 13
8 8 10 11 13 3 9 5 2 9 11 21 20 22 14 17 16 13 8 7 5 5 8 7 8 14 19 14 11 12 14 13 13 13 15 14 18 19 20 16 19 15 11 11 10 8 8 8 10
13 14 16 21 8 6 3 2 10 11 11 13 18 18 15 11 12 10 8 4 2 3 9 6 6 13 18 13 13 11 11 10 11 13 12 15 18 21 21 15 19 19 17 12 9 8 9 7 9
9 16 22 14 5 4 4 5 12 5 12 8 14 18 15 15 12 12 5 2 1 6 9 12 8 12 14 13 13 14 13 12 13 12 13 13 15 18 19 18 20 20 21 12 8 8 7 6 4
17 19 13 13 10 2 18 13 5 10 8 13 15 16 13 8 11 9 5 1 8 10 10 7 10 12 12 15 15 13 14 12 11 14 9 11 14 15 17 21 21 19 18 15 11 7 9 7 6
20 14 10 11 13 18 14 7 4 9 18 15 10 16 9 8 11 10 4 7 9 12 7 7 12 15 10 13 13 17 15 15 10 10 11 11 13 11 13 16 18 17 15 16 17 15 13 14 10
11 12 14 16 20 8 1 3 5 10 12 10 12 8 11 13 8 6 8 6 8 10 6 7 11 8 11 12 12 13 15 13 14 12 12 13 15 9 12 13 15 15 16 17 17 15 15 13 13
14 12 11 10 8 4 8 11 6 4 10 11 12 6 7 6 7 5 3 5 6 7 6 5 7 8 9 10 10 15 10 13 10 12 7 9 12 12 10 12 12 13 12 13 16 18 16 16 16
13 17 13 7 6 3 5 4 4 11 12 11 11 11 9 10 4 5 8 9 7 9 5 6 8 8 10 11 12 16 16 11 7 7 10 12 13 10 9 10 8 10 13 14 17 14 14 13 13
20 17 14 6 8 4 2 3 8 13 14 12 12 15 11 9 8 10 12 8 9 4 6 7 9 8 8 12 10 17 13 14 9 9 9 10 16 6 10 7 8 11 14 14 10 9 10 9 12
Wind_Direction
271 268 336 346 37 40 95 84 73 69 74 72 73 75 75 53 47 76 93 112 106 106 104 108 94 82 75 67 55 41 21 8 4 3 6 21 43 56 56 53 67 80 81 85 98 96 100 110 103
276 281 269 60 64 297 87 93 74 87 106 92 85 81 64 64 71 59 74 84 86 93 95 96 95 94 88 75 58 41 31 28 28 31 29 26 27 63 67 60 58 71 82 100 120 119 117 126 118
339 275 329 90 205 220 76 88 102 97 84 91 87 63 42 15 60 75 81 79 66 78 84 83 84 86 83 76 68 56 43 39 39 50 53 44 14 312 325 39 55 63 77 97 130 155 151 154 156
317 330 63 104 203 222 98 59 82 92 100 100 104 81 68 53 77 90 98 90 88 71 84 83 75 70 72 71 68 59 54 46 36 24 352 338 327 299 292 299 309 336 40 84 112 148 169 172 180
250 50 80 239 120 115 89 104 189 74 73 68 84 87 76 63 93 96 77 83 92 85 76 78 66 59 63 64 59 53 38 28 28 24 4 340 326 303 285 277 281 288 291 237 171 161 182 207 207
83 83 318 239 100 85 77 68 80 92 95 97 95 88 68 73 87 87 96 70 80 75 77 74 65 55 51 54 52 44 35 19 357 339 333 339 338 331 318 300 284 278 275 279 269 252 233 227 233
118 145 299 2 98 87 96 89 81 98 80 52 128 98 104 88 83 84 84 89 79 75 71 72 63 48 40 43 40 34 29 25 14 357 344 342 338 352 334 309 295 283 280 278 273 271 273 266 258
112 146 312 80 300 93 84 81 75 100 60 77 80 136 124 112 100 95 95 94 89 88 89 83 80 71 40 32 33 29 19 11 6 352 335 316 316 280 311 286 286 277 280 280 278 276 273 273 273
82 107 207 170 157 145 122 94 79 78 83 66 80 104 126 120 107 110 106 84 78 67 66 70 66 53 42 36 33 32 24 13 7 6 353 353 305 278 283 278 280 275 278 276 275 273 271 269 269
87 103 251 137 128 133 116 118 125 103 90 86 87 107 104 98 114 111 96 89 88 80 67 59 56 39 15 24 21 22 355 349 346 340 333 337 319 323 326 325 312 296 281 282 273 266 263 263 279
153 203 93 81 113 104 104 105 118 119 79 114 120 114 113 120 122 103 95 93 87 79 80 69 48 40 56 21 21 6 350 339 339 331 334 320 314 330 315 313 318 316 323 324 307 284 264 217 226
158 86 98 107 111 117 107 94 59 80 117 125 126 125 126 129 124 114 104 99 86 79 72 60 41 45 27 21 359 356 340 336 322 337 330 314 321 316 297 271 271 300 314 307 304 300 289 271 260
349 88 104 120 118 112 120 95 101 105 124 125 127 130 130 127 121 112 98 97 96 83 71 40 13 356 2 7 345 354 345 325 327 322 325 321 332 294 298 277 269 263 283 281 273 265 292 298 317
219 276 108 138 112 118 109 134 92 137 137 134 132 133 133 131 126 126 120 110 94 71 63 43 22 12 347 360 331 349 334 317 317 335 316 307 300 298 299 288 279 262 285 273 264 239 256 291 299
93 40 337 83 131 154 146 131 119 150 156 146 141 145 137 141 144 131 121 96 78 73 40 10 9 332 326 333 332 329 317 334 344 328 313 306 310 311 308 296 268 273 273 281 271 264 262 270 272
56 96 188 252 335 239 224 142 148 160 158 152 149 146 144 154 127 119 128 99 51 34 23 7 336 322 320 345 351 341 345 343 332 313 306 308 314 312 308 302 284 277 291 269 273 267 270 266 268
189 226 224 295 23 293 270 131 167 166 162 162 154 156 150 125 127 115 97 93 69 55 12 337 342 333 339 6 352 351 343 340 327 315 327 316 322 321 300 305 299 288 300 290 277 266 265 262 265
235 201 204 16 34 266 280 135 157 169 173 171 159 144 151 146 137 124 85 103 90 38 342 352 339 334 356 2 333 339 336 344 326 320 321 328 348 331 342 317 309 302 308 303 286 285 274 268 273
47 55 122 162 214 323 123 151 169 162 182 161 163 159 159 153 141 132 137 68 39 356 3 350 346 349 4 0 355 344 345 334 332 342 332 330 339 340 338 327 313 292 297 295 304 299 285 276 275
18 359 345 266 329 214 217 147 167 159 178 173 171 156 151 140 138 136 126 143 12 353 9 351 350 355 349 2 359 358 352 357 358 326 341 345 336 342 342 325 315 302 290 280 282 284 289 287 272
47 302 278 260 288 255 352 117 62 14 164 123 119 138 140 154 144 146 134 84 31 18 352 326 344 355 358 359 1 358 359 355 329 341 350 337 345 342 341 343 340 331 315 299 289 285 283 284 281
236 225 316 269 256 0 336 306 303 190 175 91 85 111 187 167 162 148 133 88 45 349 335 316 332 357 357 356 360 353 358 342 347 338 349 353 344 353 353 343 349 334 340 335 322 310 306 302 295
332 341 315 301 72 255 123 55 24 203 142 131 141 167 185 165 144 103 88 39 358 18 4 339 321 354 358 355 336 344 341 353 339 338 348 345 342 353 350 357 5 9 356 321 312 312 309 305 310
317 311 298 291 242 312 69 24 33 27 249 142 183 182 200 138 118 112 105 162 38 19 26 343 24 11 353 344 344 341 336 348 346 341 351 344 356 347 358 2 359 359 0 355 342 312 319 321 254
346 329 327 340 349 55 107 81 212 299 93 126 170 143 115 114 134 111 105 178 42 16 20 357 18 360 355 3 355 348 352 349 350 328 339 351 349 346 350 355 360 3 20 14 19 42 8 331 288
321 342 359 330 307 310 47 22 44 324 72 67 93 116 100 70 120 136 99 44 14 8 8 358 357 354 354 359 3 355 0 353 341 332 3 356 338 343 352 355 359 8 23 35 54 45 55 54 70
358 343 356 342 299 33 14 132 262 216 127 141 149 162 104 138 149 87 72 33 6 358 5 5 357 358 354 358 343 353 338 347 350 8 6 345 346 8 342 356 3 14 37 48 45 42 42 47 68
357 21 343 357 9 0 129 64 14 66 40 99 115 100 137 131 125 133 19 2 39 13 359 21 1 348 351 357 342 339 332 337 3 351 357 353 344 352 358 16 3 18 28 34 45 41 42 48 53
18 15 3 73 105 299 332 57 287 20 46 22 35 135 140 113 111 85 41 92 45 360 29 17 353 349 350 354 336 343 344 345 340 1 352 348 347 0 33 10 3 35 27 36 37 35 25 44 51
50 30 18 35 61 129 184 45 279 31 29 30 11 23 39 11 7 50 45 29 20 30 34 359 340 344 357 331 352 344 6 17 21 10 17 358 357 56 40 10 44 41 40 22 28 43 43 54 47